Airfield :
LOGIN :

Register | Disclaimer

   EN    FR    IT 

 










Legend :    VFR   Marginal VFR   IFR   Intensive IFR   Very Intensive IFR
Visi :
Ceiling :
>= 8 km
>= 3000ft
5 to 8 km
1000 to 3000 ft
1500m to 5 km
500 to 1000 ft
800 to 1500m
200 to 500 ft
< 800m
< 200 ft
Symbols :   Thunderstorms  Fog  Heavy snow  Heavy precipitations  Wind > 20 kt
SIGMETs :     Misc.  Thunderstorms  Icing  Turbulence  Mountain Waves  Volcanic Ashes







- Airport Elevation : 56 ft
- IATA code : BZR
- Download approach charts


LFMU - Beziers / Vias

CURRENT METAR :
  • 152230Z AUTO 32002KT CAVOK 21/14 Q1016

EXPIRED METARs :
  • 152200Z AUTO 29001KT CAVOK 22/15 Q1016
  • 152130Z AUTO 28002KT CAVOK 22/14 Q1016
  • 152100Z AUTO VRB01KT CAVOK 23/13 Q1016
  • 152030Z AUTO VRB03KT CAVOK 25/14 Q1016 NOSIG
  • 152000Z AUTO VRB02KT CAVOK 24/15 Q1016 TEMPO 18012KT

TAF TAF LFMU
Valid from the 15 at 15:00 until the 16 at 15:00 UTC


151400Z 1515/1615 VRB02KT CAVOK
TEMPO 1515/1522 18012KT
BECMG 1608/1611 16012KT
ATIS : +33 4 67 90 88 88
No reported NOTAMs for that airfield.



MET'MAP, your aeronautical weather chart ! - Copyright ORBIFLY December 2007 - Disclaimer

ORBIFLY MET'MAP TEAM :

Programming & Development : Alexandra Zaïnal
Concept & Development : Baudouin d'Aumeries
Co-Development & Prog : Marc-Olivier Méhu
Technical & hardware support : Manuel Goepfert

Contact : metmap@orbifly.com




SOURCES & CREDITS :

   NOAA